Regional Weather Roundup
Issued by NWS

Home | Current Version | Previous Version | Graphics & Text | Print | Product List | Glossary On
Versions: 1 2 3 4 5 6 7 8 9 10 11 12 13 14 15 16 17 18 19 20 21 22 23 24 25 26 27 28 29 30 31 32 33 34 35 36 37 38 39 40 41 42 43 44 45 46 47 48 49 50
000
ASUS43 KMPX 291701
RWRMN
WEATHER ROUNDUP FOR MINNESOTA
NATIONAL WEATHER SERVICE TWIN CITIES/CHANHASSEN MN
1200 PM CDT THU SEP 29 2016


NOTE: "FAIR" INDICATES FEW OR NO CLOUDS BELOW 12,000 FEET WITH NO
SIGNIFICANT WEATHER AND/OR OBSTRUCTIONS TO VISIBILITY. N/A MEANS
CURRENT SKY AND/OR WEATHER CONDITIONS ARE NOT AVAILABLE.

MNZ060>063-068>070-291800-
   Twin Cities Metro

CITY           SKY/WX    TMP DP  RH WIND       PRES   REMARKS
TWIN CITIES    MOSUNNY   62  50  64 N10       30.48S
ST PAUL        PTSUNNY   61  51  70 NE8       30.48F
CRYSTAL        PTSUNNY   60  48  64 E6        30.47F
BLAINE         PTSUNNY   63  52  67 NE10      30.48S
LAKEVILLE      PTSUNNY   61  52  72 NE5       30.47S
EDEN PRAIRIE   PTSUNNY   61  50  67 N8        30.47S
LAKEVILLE      PTSUNNY   61  52  72 NE5       30.47S
SOUTH ST PAUL  MOSUNNY   61  50  66 NE6       30.47S
LAKE ELMO      FAIR      61  52  72 NE7       30.48F
$$
MNZ001>005-007-008-013>017-022>024-027-028-291800-
   Northwest Minnesota

CITY           SKY/WX    TMP DP  RH WIND       PRES   REMARKS
BEMIDJI        CLOUDY    58  50  72 E5        30.50F
HALLOCK        PTSUNNY   61  50  67 S10       30.47F
ROSEAU         PTSUNNY   61  48  63 S7        30.50S HAZE
WARROAD        PTSUNNY   59  46  63 CALM      30.51S
THIEF RVR FALL PTSUNNY   59  45  59 S9        30.49F
CROOKSTON      CLOUDY    61  46  59 S12       30.48F
FOSSTON        MOSUNNY   59  43  55 S6        30.50S
DETROIT LAKES  CLOUDY    57  43  58 S8        30.51S
MOORHEAD       MOSUNNY   61  45  55 SE8       30.49F
PARK RAPIDS    CLOUDY    59  41  51 SE6       30.50F
MAHNOMEN       CLOUDY    59  44  57 S9        30.49F
$$
MNZ006-009>011-018-025>026-291800-
   North Central Minnesota

CITY           SKY/WX    TMP DP  RH WIND       PRES   REMARKS
BAUDETTE       CLOUDY    58  44  60 SE8       30.52S
FLAG ISLAND    CLOUDY    57  48  72 S6        30.50F
INTL FALLS     CLOUDY    58  49  72 SE5       30.52S
WASKISH        CLOUDY    59  46  63 S5        30.51S
BIG FORK       CLOUDY    59  50  72 CALM      30.52S
GRAND RAPIDS   CLOUDY    56  50  80 SE5       30.54S
ORR            CLOUDY    57  43  58 CALM      30.51S
COOK           CLOUDY    55  46  71 E3        30.54R
WALKER         CLOUDY    57  49  75 E3        30.51S
$$
MNZ012-019>021-037-291800-
   Northeast Minnesota

CITY           SKY/WX    TMP DP  RH WIND       PRES   REMARKS
DULUTH         CLOUDY    58  50  75 E12       30.51F
ELY            CLOUDY    54  43  66 E5        30.53S
HIBBING        CLOUDY    56  47  71 E8        30.52S
EVELETH        CLOUDY    58  46  66 E5        30.54R
DULUTH HARBOR  CLOUDY    57  52  82 NE13      30.53F
TWO HARBORS    MOSUNNY   63  54  72 E9        30.50F
SILVER BAY     MOSUNNY   61  50  67 E6        30.51F
GRAND MARAIS     N/A     60  47  61 CALM      30.52S
G MARAIS ARPRT CLOUDY    55  43  62 NE3       30.54S
$$
MNZ029>031-032-039>041-046>048-054>057-064-291800-
   West Central Minnesota

CITY           SKY/WX    TMP DP  RH WIND       PRES   REMARKS
FERGUS FALLS   CLOUDY    59  45  58 SE9       30.51F
MORRIS         PTSUNNY   64  46  52 SE8G18    30.48F
ALEXANDRIA     CLOUDY    59  48  67 SE7       30.51F
ELBOW LAKE     CLOUDY    58  46  63 SE8       30.50S
WADENA         CLOUDY    57  45  62 SE5       30.50S
GLENWOOD       MOSUNNY   59  46  63 E9        30.50F
BENSON         PTSUNNY   61  46  59 SE9       30.49F
ORTONVILLE     MOSUNNY   61  46  59 CALM      30.48F
MADISON        MOSUNNY   64  50  59 E8        30.48S
WILLMAR        CLOUDY    61  50  67 E10       30.50S
$$
MNZ033>034-036-042>043-049>051-058-059-291800-
   Central Minnesota

CITY           SKY/WX    TMP DP  RH WIND       PRES   REMARKS
ST CLOUD       CLOUDY    60  50  69 NE6       30.50F
SAUK CENTRE    CLOUDY    59  49  69 E8        30.50F
PAYNESVILLE    CLOUDY    60  46  59 E10       30.50S
AITKIN         CLOUDY    61  48  63 CALM      30.50S
PINE RIVER     CLOUDY    57  48  72 SE3       30.53S
BRAINERD       CLOUDY    58  47  66 VRB6      30.51F
STAPLES        CLOUDY    57  45  62 SE3       30.51S
LONG PRAIRIE   CLOUDY    57  48  72 NE6       30.50F
LITTLE FALLS   CLOUDY    59  48  67 NE3       30.50F
LITCHFIELD     PTSUNNY   63  52  67 E10       30.50S
BUFFALO        PTSUNNY   58  48  69 N8        30.50F
MAPLE LAKE     PTSUNNY   60  51  71 NE9       30.50F
HUTCHINSON     SUNNY     62  50  66 NE13      30.49F
$$
MNZ037-044-045-052-053-291800-
   East Central Minnesota

CITY           SKY/WX    TMP DP  RH WIND       PRES   REMARKS
PRINCETON      PTSUNNY   61  52  72 NE8       30.50S
MORA           CLOUDY    55  46  71 NE6       30.52S
CAMBRIDGE      CLOUDY    61  48  63 NE8       30.48S
MOOSE LAKE     CLOUDY    57  48  72 NE5       30.50S
HINCKLEY       CLOUDY    59  52  77 NE9       30.50F
CLOQUET        CLOUDY    59  48  67 E8        30.51F
MCGREGOR       CLOUDY    59  50  72 E5        30.52S
$$
MNZ071>073-080-081-089-090-097-098-291800-
   Southwest Minnesota

CITY           SKY/WX    TMP DP  RH WIND       PRES   REMARKS
MONTEVIDEO     PTSUNNY   63  48  59 E6        30.50S
GRANITE FALLS  CLOUDY    61  52  72 NE7       30.50S
CANBY          SUNNY     59  48  67 SE6       30.49F
MARSHALL       SUNNY     58  47  66 VRB3      30.49S
REDWOOD FALLS  CLOUDY    60  49  66 E3        30.48F
OLIVIA         PTSUNNY   59  46  63 E5        30.48S
PIPESTONE      SUNNY     61  46  59 CALM      30.47S
WINDOM         SUNNY     61  50  67 NE7       30.47S
WORTHINGTON    MOSUNNY   60  50  69 VRB5      30.47F
JACKSON        MOSUNNY   61  50  67 N6        30.47S
TRACY          MOSUNNY   61  50  68 NE8       30.48F
$$
MNZ065>067-074>077-082>085-091>093-291800-
   South Central Minnesota

CITY           SKY/WX    TMP DP  RH WIND       PRES   REMARKS
MANKATO        MOSUNNY   57  50  77 NE7       30.48S
ST JAMES       CLOUDY    57  52  82 N3        30.48F
FAIRMONT       CLOUDY    53  50  89 NE7       30.49R
GLENCOE        MOSUNNY   60  53  75 NE5       30.48S
FARIBAULT      MOSUNNY   57  50  77 NE5       30.48S
OWATONNA       SUNNY     59  52  77 N7        30.47S
WASECA         SUNNY     57  50  77 N6        30.48S
ALBERT LEA     SUNNY     63  48  59 NE6       30.45R
$$
MNZ078>079-086>088-094>096-291800-
   Southeast Minnesota

CITY           SKY/WX    TMP DP  RH WIND       PRES   REMARKS
ROCHESTER      PTSUNNY   58  51  78 N8        30.46S
RED WING       SUNNY     64  50  59 NE5       30.45S
STANTON        MOSUNNY   59  50  70 N3        30.47R
DODGE CENTER   MOSUNNY   57  50  77 N8        30.46S
WINONA         SUNNY     59  50  72 NW6       30.44S
AUSTIN         SUNNY     63  48  59 NE10      30.44R
PRESTON        SUNNY     57  51  78 N9        30.44S
$$
ABBREVIATIONS USED IN REMARKS
   TC - TEMPERATURES IN CELSIUS
  WCI - WIND CHILL INDEX
   HX - HEAT INDEX
  VSB - VISIBILITY
$$



USA.gov is the U.S. government's official web portal to all federal, state and local government web resources and services.